This is the latest recevied weather packets stored in our database for station/object KB1FFS. If no packets are shown the sender has not sent any weather packets the latest 10 day(s).
| Time | Temp. | Humidity | Pressure | Rain* | Wind** | Luminosity | Snow |
|---|---|---|---|---|---|---|---|
| 1777041243 | 25.56° C | 75% | 1006.5 hPa | 0 mm | - | 110 W/m² | - |
| 1777040940 | 25.56° C | 76% | 1006.4 hPa | 0 mm | - | 196 W/m² | - |
| 1777040636 | 25° C | 76% | 1006.4 hPa | 0 mm | - | 283 W/m² | - |
| 1777040335 | 25° C | 76% | 1006.4 hPa | 0 mm | - | 99 W/m² | - |
| 1777040031 | 25.56° C | 76% | 1006.2 hPa | 0 mm | - | 116 W/m² | - |
| 1777039727 | 25° C | 77% | 1006.2 hPa | 0 mm | - | 122 W/m² | - |
| 1777039422 | 25° C | 76% | 1006.5 hPa | 0 mm | - | 115 W/m² | - |
| 1777039118 | 25° C | 77% | 1006.5 hPa | 0 mm | - | 137 W/m² | - |
| 1777038817 | 25° C | 78% | 1006.3 hPa | 0 mm | - | 122 W/m² | - |
| 1777038514 | 24.44° C | 78% | 1006.4 hPa | 0 mm | - | 91 W/m² | - |
| 1777038213 | 24.44° C | 79% | 1006.3 hPa | 0 mm | - | 86 W/m² | - |
| 1777037909 | 23.89° C | 80% | 1006.3 hPa | 0 mm | - | 99 W/m² | - |
| 1777037605 | 23.89° C | 80% | 1006.2 hPa | 0 mm | - | 91 W/m² | - |
| 1777037302 | 23.89° C | 81% | 1006.2 hPa | 0 mm | - | 111 W/m² | - |
| 1777036999 | 23.33° C | 81% | 1006.2 hPa | 0 mm | - | 66 W/m² | - |
| 1777036696 | 23.33° C | 82% | 1006.2 hPa | 0 mm | - | 82 W/m² | - |
| 1777036396 | 23.33° C | 82% | 1006.1 hPa | 0 mm | - | 64 W/m² | - |
| 1777036092 | 23.33° C | 82% | 1006.1 hPa | 0 mm | - | 66 W/m² | - |
| 1777035787 | 22.78° C | 83% | 1006.4 hPa | 0 mm | - | 57 W/m² | - |
| 1777035484 | 22.78° C | 83% | 1006.4 hPa | 0 mm | - | 45 W/m² | - |
| 1777035183 | 22.78° C | 83% | 1006.4 hPa | 0 mm | - | 41 W/m² | - |
| 1777034880 | 22.78° C | 83% | 1006.1 hPa | 0 mm | - | 18 W/m² | - |
| 1777034577 | 22.78° C | 82% | 1006.3 hPa | 0 mm | - | 17 W/m² | - |
| 1777034274 | 22.78° C | 83% | 1006 hPa | 0 mm | - | 25 W/m² | - |
| 1777033969 | 22.78° C | 83% | 1006 hPa | 0 mm | - | 30 W/m² | - |
* Rain latest hour (hover to see other rain measurements)
** Current wind speed in m/s (hover to see current wind gust speed)